Alpine, TX

1:40 AM CDT on June 29, 2017 (GMT -0500)
Alpine

Weather History for KE38 - December, 2011

Change the Weather History Date:

Thursday, December 1, 2011

  Actual Average (KMRF) Record (KMRF)
Temperature  
Mean Temperature 51 °F -  
Max Temperature 67 °F 57 °F 75 °F (2012)
Min Temperature 35 °F 29 °F 14 °F (2004)
Degree Days  
Heating Degree Days 14    
Growing Degree Days 1 (Base 50)    
Moisture  
Dew Point 10 °F    
Average Humidity 23    
Maximum Humidity 51    
Minimum Humidity 6    
Precipitation  
Precipitation 0.00 in - - ()
Sea Level Pressure  
Sea Level Pressure 30.07 in    
Wind  
Wind Speed 10 mph (SW)    
Max Wind Speed 20 mph    
Max Gust Speed 26 mph    
Visibility 10 miles    
Events      
Averages and records for this station are not official NWS values.
T = Trace of Precipitation, MM = Missing Value Source: NWS Daily Summary

Daily Weather History Graph

Daily Weather History Graph

Search for Another Location

Airport or City:

Trip Planner

Search our weather history database for the weather conditions in past years. The results will help you decide how hot, cold, wet, or windy it might be!

Date:

Astronomy

Dec. 01, 2011 Rise Set
Actual Time 7:33 AM CST 5:53 PM CST
Civil Twilight 7:07 AM CST 6:19 PM CST
Nautical Twilight 6:37 AM CST 6:49 PM CST
Astronomical Twilight 6:08 AM CST 7:18 PM CST
Moon 12:37 PM CST (12/1) No Moon Set
Length of Visible Light 11h 12m
Length of Day
10h 20m
Waxing Crescent, 43% of the Moon is Illuminated
Dec 1
Waxing Crescent
Dec 2
First Quarter
Dec 10
Full
Dec 17
Last Quarter
Dec 24
New

Hourly Weather History & Observations

Time (CST) Temp. Windchill Dew Point Humidity Pressure Visibility Wind Dir Wind Speed Gust Speed Precip Events Conditions
12:15 AM 50.0 °F - 12.2 °F 22% 30.02 in 10.0 mi SSW 15.0 mph - N/A   Clear
12:35 AM 50.0 °F - 11.5 °F 21% 30.02 in 10.0 mi SSW 15.0 mph - N/A   Clear
12:55 AM 50.0 °F - 12.2 °F 22% 30.02 in 10.0 mi SSW 13.8 mph - N/A   Clear
1:15 AM 48.4 °F - 11.8 °F 23% 30.01 in 10.0 mi SSW 11.5 mph - N/A   Clear
1:35 AM 48.6 °F - 11.7 °F 23% 30.00 in 10.0 mi SW 5.8 mph 11.5 mph N/A   Clear
1:55 AM 46.0 °F 41.0 °F 10.8 °F 24% 30.00 in 10.0 mi SW 10.4 mph 18.4 mph N/A   Clear
2:15 AM 48.9 °F - 10.6 °F 21% 30.00 in 10.0 mi SW 11.5 mph - N/A   Clear
2:35 AM 49.5 °F - 9.7 °F 20% 29.99 in 10.0 mi SSW 11.5 mph 18.4 mph N/A   Clear
2:55 AM 50.0 °F - 9.3 °F 19% 29.99 in 10.0 mi SSW 12.7 mph - N/A   Clear
3:15 AM 50.0 °F - 8.6 °F 19% 29.98 in 10.0 mi SSW 15.0 mph - N/A   Clear
3:35 AM 50.0 °F - 9.3 °F 19% 29.98 in 10.0 mi SSW 15.0 mph - N/A   Clear
3:55 AM 50.0 °F - 9.3 °F 19% 29.98 in 10.0 mi SSW 12.7 mph - N/A   Clear
4:35 AM 48.0 °F - 9.9 °F 21% 29.99 in 10.0 mi SSW 11.5 mph - N/A   Clear
4:55 AM 46.9 °F - 9.9 °F 22% 29.99 in 10.0 mi South 8.1 mph - N/A   Clear
5:15 AM 45.7 °F 42.7 °F 9.9 °F 23% 29.99 in 10.0 mi WSW 5.8 mph - N/A   Clear
5:35 AM 44.8 °F 41.0 °F 9.7 °F 24% 30.00 in 10.0 mi WSW 6.9 mph - N/A   Clear
5:55 AM 44.1 °F 40.1 °F 9.7 °F 25% 30.00 in 10.0 mi WSW 6.9 mph - N/A   Clear
6:15 AM 42.4 °F 38.1 °F 9.1 °F 26% 30.01 in 10.0 mi WSW 6.9 mph - N/A   Clear
6:35 AM 41.0 °F 35.8 °F 8.4 °F 26% 30.01 in 10.0 mi WSW 8.1 mph - N/A   Clear
7:15 AM 36.9 °F - 7.2 °F 29% 30.02 in 10.0 mi Calm Calm - N/A   Clear
7:35 AM 40.3 °F - 7.9 °F 26% 30.04 in 10.0 mi Calm Calm - N/A   Clear
7:55 AM 40.1 °F 36.9 °F 7.7 °F 26% 30.05 in 10.0 mi North 4.6 mph - N/A   Clear
8:15 AM 35.1 °F - 7.0 °F 31% 30.06 in 10.0 mi Calm Calm - N/A   Clear
8:35 AM 37.2 °F 32.6 °F 8.2 °F 30% 30.06 in 10.0 mi South 5.8 mph - N/A   Clear
8:55 AM 42.8 °F 41.1 °F 10.4 °F 27% 30.06 in 10.0 mi SSW 3.5 mph - N/A   Clear
9:15 AM 46.0 °F - 10.0 °F 23% 30.07 in 7.0 mi Calm Calm - N/A   Clear
9:35 AM 49.3 °F - 10.8 °F 21% 30.08 in 10.0 mi Calm Calm - N/A   Clear
9:55 AM 50.5 °F - 9.9 °F 19% 30.08 in 10.0 mi SSE 4.6 mph - N/A   Clear
10:15 AM 53.2 °F - 9.5 °F 17% 30.08 in 10.0 mi South 6.9 mph - N/A   Clear
10:35 AM 55.6 °F - 8.4 °F 15% 30.08 in 10.0 mi SSW 11.5 mph - N/A   Clear
10:55 AM 58.3 °F - 6.4 °F 13% 30.09 in 10.0 mi South 9.2 mph - N/A   Clear
11:15 AM 60.6 °F - 5.9 °F 11% 30.08 in 10.0 mi South 11.5 mph - N/A   Clear
11:35 AM 63.5 °F - 5.2 °F 10% 30.08 in 10.0 mi SSW 6.9 mph - N/A   Clear
11:55 AM 64.6 °F - 2.1 °F 8% 30.07 in 10.0 mi SW 8.1 mph 17.3 mph N/A   Clear
12:15 PM 64.9 °F - 1.0 °F 8% 30.07 in 10.0 mi SW 8.1 mph 16.1 mph N/A   Clear
12:35 PM 64.9 °F - -0.2 °F 7% 30.07 in 10.0 mi WSW 8.1 mph - N/A   Clear
12:55 PM 65.1 °F - -1.1 °F 7% 30.06 in 10.0 mi SW 10.4 mph 19.6 mph N/A   Clear
1:15 PM 64.9 °F - -2.0 °F 7% 30.05 in 10.0 mi WSW 6.9 mph - N/A   Clear
1:35 PM 66.2 °F - -2.2 °F 6% 30.04 in 10.0 mi SW 10.4 mph - N/A   Clear
1:55 PM 66.9 °F - -1.7 °F 6% 30.03 in 10.0 mi WSW 6.9 mph - N/A   Clear
2:15 PM 67.1 °F - -2.4 °F 6% 30.03 in 10.0 mi SSW 10.4 mph - N/A   Clear
2:35 PM 66.7 °F - -3.6 °F 6% 30.03 in 10.0 mi SSW 9.2 mph - N/A   Clear
3:15 PM 64.9 °F - -2.2 °F 7% 30.04 in 10.0 mi South 8.1 mph - N/A   Clear
3:35 PM 61.0 °F - 8.1 °F 12% 30.07 in 10.0 mi East 19.6 mph 25.3 mph N/A   Clear
3:55 PM 55.9 °F - 16.9 °F 22% 30.09 in 10.0 mi ENE 19.6 mph 26.5 mph N/A   Clear
4:15 PM 54.0 °F - 19.0 °F 25% 30.12 in 10.0 mi NE 13.8 mph 19.6 mph N/A   Clear
4:35 PM 51.8 °F - 18.7 °F 27% 30.13 in 10.0 mi ENE 16.1 mph - N/A   Clear
4:55 PM 50.0 °F - 18.1 °F 28% 30.13 in 10.0 mi ENE 13.8 mph - N/A   Clear
5:15 PM 50.0 °F - 18.9 °F 29% 30.14 in 10.0 mi NNE 8.1 mph - N/A   Clear
5:35 PM 47.8 °F - 18.1 °F 31% 30.14 in 10.0 mi North 9.2 mph - N/A   Clear
5:55 PM 45.3 °F 41.6 °F 18.1 °F 34% 30.16 in 10.0 mi North 6.9 mph - N/A   Clear
6:15 PM 44.4 °F 40.5 °F 18.9 °F 36% 30.16 in 10.0 mi North 6.9 mph - N/A   Clear
6:35 PM 42.4 °F 38.1 °F 18.3 °F 38% 30.18 in 10.0 mi North 6.9 mph - N/A   Clear
6:55 PM 42.4 °F 39.6 °F 19.6 °F 40% 30.19 in 10.0 mi NNE 4.6 mph - N/A   Clear
7:15 PM 42.4 °F 37.5 °F 20.7 °F 42% 30.19 in 10.0 mi North 8.1 mph - N/A   Clear
7:35 PM 42.8 °F 38.0 °F 22.1 °F 44% 30.20 in 10.0 mi NNE 8.1 mph - N/A   Clear
7:55 PM 45.0 °F 40.1 °F 24.8 °F 45% 30.22 in 10.0 mi NNE 9.2 mph - N/A   Clear
8:15 PM 45.0 °F 40.6 °F 26.1 °F 48% 30.23 in 10.0 mi NNE 8.1 mph - N/A   Clear
8:35 PM 43.2 °F 37.4 °F 26.1 °F 51% 30.24 in 10.0 mi North 10.4 mph - N/A   Clear
8:55 PM 42.1 °F 36.1 °F 27.9 °F 57% 30.24 in 10.0 mi North 10.4 mph - N/A   Clear
9:15 PM 42.4 °F 35.7 °F 30.4 °F 62% 30.26 in 10.0 mi NNE 12.7 mph - N/A   Clear
9:35 PM 41.7 °F 32.3 °F 30.6 °F 65% 30.27 in 10.0 mi North 21.9 mph 26.5 mph N/A   Clear
9:55 PM 38.8 °F 30.0 °F 26.1 °F 60% 30.27 in 10.0 mi North 16.1 mph - N/A   Clear
10:15 PM 37.4 °F 26.4 °F 24.8 °F 60% 30.28 in 7.0 mi North 23.0 mph 26.5 mph N/A   Scattered Clouds
10:35 PM 37.6 °F 26.6 °F 24.4 °F 59% 30.28 in 7.0 mi North 23.0 mph 29.9 mph N/A   Mostly Cloudy
11:15 PM 37.4 °F 27.5 °F 24.1 °F 59% 30.30 in 10.0 mi North 18.4 mph 24.2 mph N/A   Overcast
11:35 PM 37.4 °F 29.3 °F 24.4 °F 60% 30.31 in 10.0 mi NNE 12.7 mph 27.6 mph N/A   Overcast
11:55 PM 37.4 °F 27.5 °F 24.8 °F 60% 30.32 in 10.0 mi NNE 18.4 mph 21.9 mph N/A   Overcast